Weather History for Fort Meade, MD

Change the Weather History Date:

Monday, February 10, 2014

  Actual Average (KBWI) Record (KBWI)
Temperature  
Mean Temperature 24 °F 35 °F  
Max Temperature 32 °F 44 °F 66 °F (1959)
Min Temperature 15 °F 26 °F -7 °F (1899)
Degree Days  
Heating Degree Days 42 30  
Month to date heating degree days 308  
Since 1 July heating degree days 3084  
Cooling Degree Days 0 0  
Month to date cooling degree days 0  
Year to date cooling degree days 0  
Moisture  
Dew Point 14 °F    
Average Humidity 63    
Maximum Humidity 100    
Minimum Humidity 44    
Precipitation  
Precipitation 0.00 in 0.10 in 1.65 in (1881)
Month to date precipitation 1.03  
Year to date precipitation 4.08  
Snow  
Snow 0.00 in 0.30 in 15.50 in (2010)
Month to date snowfall 3.2  
Since 1 July snowfall 13.4  
Snow Depth -    
Sea Level Pressure  
Sea Level Pressure 30.24 in    
Wind  
Wind Speed 4 mph (NNW)    
Max Wind Speed 12 mph    
Max Gust Speed 18 mph    
Visibility 10 miles    
Events      
T = Trace of Precipitation, MM = Missing Value Source: NWS Daily Summary

Daily Weather History Graph

Daily Weather History Graph

Search for Another Location

Airport:

Trip Planner

Search our weather history database for the weather conditions in past years. The results will help you decide how hot, cold, wet, or windy it might be!

Date:

Astronomy

Feb. 10, 2014 Rise Set
Actual Time 7:04 AM EST 5:38 PM EST
Civil Twilight 6:36 AM EST 6:06 PM EST
Nautical Twilight 6:05 AM EST 6:37 PM EST
Astronomical Twilight 5:34 AM EST 7:08 PM EST
Moon 2:06 PM EST (2/10) 3:55 AM EST (2/10)
Length of Visible Light 11h 29m
Length of Day
10h 34m
Waxing Gibbous, 84% of the Moon is Illuminated
Feb 10
Waxing Gibbous
Feb 14
Full
Feb 22
Last Quarter
Mar 1
New
Mar 8
First Quarter

Hourly Weather History & Observations

Time (EST) Temp. Windchill Dew Point Humidity Pressure Visibility Wind Dir Wind Speed Gust Speed Precip Events Conditions
12:09 AM 23.0 °F - 21.2 °F 93% 30.08 in 3.0 mi Calm Calm - N/A   Clear
12:30 AM 23.0 °F - 21.2 °F 93% 30.08 in 2.0 mi Calm Calm - N/A   Clear
12:51 AM 21.2 °F - 21.2 °F 100% 30.08 in 3.0 mi Calm Calm - N/A   Clear
1:09 AM 23.0 °F 15.8 °F 23.0 °F 100% 30.08 in 4.0 mi NNW 5.8 mph - N/A   Clear
1:30 AM 28.4 °F 22.2 °F 26.6 °F 93% 30.08 in 10.0 mi NW 5.8 mph - N/A   Clear
1:51 AM 28.4 °F 23.3 °F 23.0 °F 80% 30.10 in 10.0 mi WNW 4.6 mph - N/A   Clear
2:09 AM 28.4 °F 21.2 °F 23.0 °F 80% 30.11 in 10.0 mi WNW 6.9 mph - N/A   Clear
2:30 AM 28.4 °F 22.2 °F 23.0 °F 80% 30.11 in 10.0 mi NW 5.8 mph - N/A   Clear
2:51 AM 28.4 °F 24.6 °F 23.0 °F 80% 30.11 in 10.0 mi North 3.5 mph - N/A   Clear
3:09 AM 28.4 °F 20.4 °F 19.4 °F 69% 30.13 in 10.0 mi WNW 8.1 mph - N/A   Clear
3:30 AM 28.4 °F 23.3 °F 19.4 °F 69% 30.13 in 10.0 mi NNW 4.6 mph - N/A   Clear
3:51 AM 26.6 °F 22.6 °F 19.4 °F 74% 30.14 in 10.0 mi NW 3.5 mph - N/A   Clear
4:12 AM 26.6 °F 22.6 °F 19.4 °F 74% 30.16 in 10.0 mi NW 3.5 mph - N/A   Clear
4:30 AM 26.6 °F 22.6 °F 17.6 °F 69% 30.16 in 10.0 mi NW 3.5 mph - N/A   Clear
4:51 AM 26.6 °F 21.2 °F 17.6 °F 69% 30.18 in 10.0 mi WNW 4.6 mph - N/A   Clear
5:12 AM 24.8 °F 19.1 °F 15.8 °F 69% 30.19 in 10.0 mi NW 4.6 mph - N/A   Clear
5:30 AM 23.0 °F 17.0 °F 15.8 °F 74% 30.19 in 10.0 mi NNW 4.6 mph - N/A   Clear
5:51 AM 24.8 °F 17.9 °F 14.0 °F 64% 30.20 in 10.0 mi NW 5.8 mph - N/A   Clear
6:12 AM 23.0 °F 17.0 °F 14.0 °F 68% 30.21 in 10.0 mi NNW 4.6 mph - N/A   Clear
6:30 AM 24.8 °F 16.9 °F 14.0 °F 64% 30.22 in 10.0 mi North 6.9 mph - N/A   Clear
6:51 AM 24.8 °F 15.3 °F 14.0 °F 64% 30.22 in 10.0 mi NNW 9.2 mph - N/A   Clear
7:12 AM 23.0 °F 14.7 °F 12.2 °F 63% 30.23 in 10.0 mi NNW 6.9 mph - N/A   Clear
7:30 AM 23.0 °F 14.7 °F 10.4 °F 59% 30.24 in 10.0 mi North 6.9 mph - N/A   Clear
7:51 AM 23.0 °F 13.9 °F 10.4 °F 59% 30.24 in 10.0 mi North 8.1 mph 16.1 mph N/A   Clear
8:12 AM 23.0 °F 17.0 °F 10.4 °F 59% 30.25 in 10.0 mi North 4.6 mph - N/A   Clear
8:30 AM 23.0 °F 17.0 °F 10.4 °F 59% 30.26 in 10.0 mi North 4.6 mph - N/A   Clear
8:51 AM 24.8 °F 17.9 °F 10.4 °F 54% 30.26 in 10.0 mi North 5.8 mph - N/A   Clear
9:12 AM 24.8 °F 16.9 °F 10.4 °F 54% 30.27 in 10.0 mi North 6.9 mph - N/A   Clear
9:30 AM 26.6 °F 16.8 °F 10.4 °F 51% 30.28 in 10.0 mi North 10.4 mph - N/A   Clear
9:51 AM 26.6 °F 19.1 °F 12.2 °F 55% 30.27 in 10.0 mi North 6.9 mph - N/A   Clear
9:57 AM 28.4 °F 19.1 °F 12.2 °F 51% 30.27 in 10.0 mi NW 10.4 mph - N/A   Clear
11:12 AM 28.4 °F 19.7 °F 12.2 °F 51% 30.28 in 10.0 mi North 9.2 mph 18.4 mph N/A   Clear
11:30 AM 28.4 °F 18.5 °F 12.2 °F 51% 30.27 in 10.0 mi North 11.5 mph - N/A   Clear
11:51 AM 28.4 °F 19.7 °F 12.2 °F 51% 30.27 in 10.0 mi North 9.2 mph - N/A   Clear
12:12 PM 30.2 °F 23.4 °F 14.0 °F 51% 30.26 in 10.0 mi North 6.9 mph - N/A   Clear
12:30 PM 30.2 °F 22.6 °F 12.2 °F 47% 30.26 in 10.0 mi NW 8.1 mph - N/A   Clear
12:51 PM 30.2 °F 21.9 °F 14.0 °F 51% 30.25 in 10.0 mi NW 9.2 mph - N/A   Clear
1:12 PM 30.2 °F 22.6 °F 12.2 °F 47% 30.25 in 10.0 mi NNW 8.1 mph 16.1 mph N/A   Clear
1:33 PM 30.2 °F 23.4 °F 12.2 °F 47% 30.24 in 10.0 mi WNW 6.9 mph - N/A   Clear
1:51 PM 32.0 °F 25.6 °F 14.0 °F 48% 30.22 in 10.0 mi NW 6.9 mph 16.1 mph N/A   Clear
2:12 PM 30.2 °F 21.3 °F 12.2 °F 47% 30.23 in 10.0 mi NW 10.4 mph 16.1 mph N/A   Clear
2:33 PM 30.2 °F 24.3 °F 12.2 °F 47% 30.23 in 10.0 mi NW 5.8 mph - N/A   Clear
2:51 PM 30.2 °F 23.4 °F 12.2 °F 47% 30.24 in 10.0 mi WNW 6.9 mph - N/A   Clear
3:12 PM 30.2 °F 22.6 °F 12.2 °F 47% 30.24 in 10.0 mi NW 8.1 mph - N/A   Clear
3:33 PM 30.2 °F 21.3 °F 12.2 °F 47% 30.24 in 10.0 mi NNW 10.4 mph - N/A   Clear
3:51 PM 30.2 °F 24.3 °F 10.4 °F 44% 30.24 in 10.0 mi NW 5.8 mph - N/A   Clear
4:12 PM 28.4 °F 23.3 °F 12.2 °F 51% 30.24 in 10.0 mi NW 4.6 mph - N/A   Clear
4:33 PM 28.4 °F 22.2 °F 12.2 °F 51% 30.25 in 10.0 mi WNW 5.8 mph - N/A   Clear
4:51 PM 28.4 °F 24.6 °F 12.2 °F 51% 30.25 in 10.0 mi NW 3.5 mph - N/A   Clear
5:12 PM 28.4 °F - 10.4 °F 47% 30.26 in 10.0 mi Calm Calm - N/A   Clear
5:33 PM 28.4 °F - 12.2 °F 51% 30.26 in 10.0 mi Calm Calm - N/A   Clear
5:51 PM 28.4 °F 22.2 °F 12.2 °F 51% 30.26 in 10.0 mi NNW 5.8 mph - N/A   Clear
6:12 PM 28.4 °F 24.6 °F 10.4 °F 47% 30.28 in 10.0 mi NNW 3.5 mph - N/A   Clear
6:33 PM 26.6 °F 21.2 °F 10.4 °F 51% 30.29 in 10.0 mi NNW 4.6 mph - N/A   Clear
6:51 PM 26.6 °F - 10.4 °F 51% 30.30 in 10.0 mi Calm Calm - N/A   Clear
7:12 PM 26.6 °F 22.6 °F 10.4 °F 51% 30.30 in 10.0 mi NNW 3.5 mph - N/A   Clear
7:33 PM 24.8 °F - 10.4 °F 54% 30.30 in 10.0 mi Calm Calm - N/A   Clear
7:51 PM 23.0 °F 18.4 °F 10.4 °F 59% 30.31 in 10.0 mi NW 3.5 mph - N/A   Clear
8:12 PM 23.0 °F - 10.4 °F 59% 30.31 in 10.0 mi Calm Calm - N/A   Clear
8:33 PM 21.2 °F - 12.2 °F 68% 30.32 in 10.0 mi Calm Calm - N/A   Clear
8:51 PM 21.2 °F 16.4 °F 12.2 °F 68% 30.32 in 10.0 mi West 3.5 mph - N/A   Clear
9:12 PM 19.4 °F - 12.2 °F 74% 30.33 in 10.0 mi Calm Calm - N/A   Clear
9:33 PM 19.4 °F - 12.2 °F 74% 30.33 in 10.0 mi Calm Calm - N/A   Clear
9:54 PM 19.4 °F - 12.2 °F 74% 30.34 in 10.0 mi Calm Calm - N/A   Clear
10:12 PM 17.6 °F - 12.2 °F 79% 30.34 in 10.0 mi Calm Calm - N/A   Clear
10:33 PM 17.6 °F - 10.4 °F 73% 30.35 in 10.0 mi Calm Calm - N/A   Clear
10:54 PM 17.6 °F - 12.2 °F 79% 30.36 in 10.0 mi Calm Calm - N/A   Clear
11:12 PM 17.6 °F 12.3 °F 12.2 °F 79% 30.36 in 10.0 mi NW 3.5 mph - N/A   Clear
11:33 PM 15.8 °F 10.2 °F 10.4 °F 79% 30.37 in 10.0 mi NW 3.5 mph - N/A   Clear
11:54 PM 17.6 °F - 10.4 °F 73% 30.37 in 10.0 mi Calm Calm - N/A   Clear